Location: Rogers
(33.5418°N, 96.2475°W)
Time: 10:50:54
(UTC+00:00)

Hubble Space Telescope - Visible Passes

Search period start: 23 June 2024 00:00
Search period end: 03 July 2024 00:00
Orbit: 510 x 514 km, 28.5° (Epoch: 22 June)

Date Brightness Start Highest point End Pass type
(mag) Time Alt. Az. Time Alt. Az. Time Alt. Az.
26 Jun 3.0 09:36:22 11° SSE 09:36:22 11° SSE 09:37:44 10° SE visible
27 Jun 3.0 09:18:08 12° SE 09:18:08 12° SE 09:19:04 10° SE visible
28 Jun 3.2 08:59:53 11° SE 08:59:53 11° SE 09:00:13 10° ESE visible
28 Jun 1.7 10:34:40 11° SW 10:38:02 32° S 10:41:37 10° ESE visible
29 Jun 1.5 10:16:25 18° SW 10:18:50 34° S 10:22:27 10° ESE visible
30 Jun 1.4 09:58:10 26° SW 09:59:37 35° S 10:03:17 10° ESE visible
01 Jul 1.3 09:39:57 35° SSW 09:40:24 37° S 09:44:05 10° ESE visible
02 Jul 1.5 09:21:47 35° SSE 09:21:47 35° SSE 09:24:53 10° ESE visible
